Home   Weather   Pointe-à-Pitre   Past weeks

Flag for Guadeloupe Past Weather in Pointe-à-Pitre, Guadeloupe — Yesterday and Last 2 Weeks

90 °F

Broken clouds.

Feels Like: 103 °F
Forecast: 76 / 88 °F
Wind: 14 mph from Southeast

Location: Le Raizet - Guadeloupe

Current Time: Oct 22, 2016 at 12:10:56 PM

Latest Report: Oct 22, 2016 at 11:30 AM

Visibility: N/A

Pressure: 29.89 "Hg

Humidity: 67%

Dew Point: 77 °F

Location of Pointe-à-PitreLocation

Past Weather in Pointe-à-Pitre — Graph


Pointe-à-Pitre Temperature Yesterday

Maximum temperature yesterday: 90 °F (at 1:00 PM)
Minimum temperature yesterday: 75 °F (at 11:30 PM)
Average temperature yesterday: 82 °F

High & Low Weather Summary for the Past Weeks

High90 °F (Oct 13, 1:00 PM)100% (Oct 8, 4:00 AM)30.01 "Hg (Oct 8, 4:00 AM)
Low72 °F (Oct 15, 4:00 AM)52% (Oct 14, 1:00 PM)29.77 "Hg (Oct 7, 3:00 PM)
Average81 °F82%29.88 "Hg
* Reported Oct 7 11:00 AM — Oct 22 11:00 AM, Pointe-à-Pitre, Weather by CustomWeather, © 2016

Note: Actual official high and low records may vary slightly from our data, if they occured in-between our weather recording intervals... More about our weather records


Pointe-à-Pitre Weather History for the Previous 24 Hours

Scroll right to see more
Time TempWeatherWind HumidityBarometerVisibility
11:00 AM
Sat, Oct 22
88 °FPartly sunny.13 mph66%29.92 "HgN/A
10:30 AM88 °FPartly sunny.12 mph66%29.92 "HgN/A
10:00 AM88 °FPartly sunny.13 mph66%29.92 "HgN/A
9:30 AM88 °FPartly sunny.13 mph66%29.92 "HgN/A
9:00 AM86 °FBroken clouds.12 mph70%29.92 "HgN/A
8:30 AM86 °FPassing clouds.9 mph75%29.92 "HgN/A
8:00 AM84 °FPassing clouds.3 mph79%29.92 "HgN/A
7:30 AM82 °FSunny.No wind89%29.92 "Hg10 mi
7:00 AM77 °FPassing clouds.1 mph100%29.89 "HgN/A
6:30 AM75 °FSunny.1 mph94%29.89 "Hg10 mi
6:00 AM75 °FSunny.No wind94%29.89 "Hg10 mi
5:30 AM75 °FClear.2 mph94%29.86 "Hg10 mi
5:00 AM75 °FPassing clouds.No wind94%29.86 "HgN/A
4:30 AM75 °FPassing clouds.No wind94%29.86 "HgN/A
4:00 AM75 °FPassing clouds.2 mph94%29.83 "HgN/A
3:30 AM75 °FMild.2 mph94%29.83 "HgN/A
3:00 AM75 °FMild.1 mph94%29.83 "HgN/A
2:30 AM75 °FClear.No wind94%29.83 "Hg10 mi
2:00 AM75 °FPassing clouds.No wind94%29.83 "HgN/A
1:30 AM75 °FPassing clouds.No wind94%29.86 "HgN/A
1:00 AM75 °FClear.No wind94%29.86 "Hg10 mi
12:30 AM75 °FPassing clouds.2 mph94%29.86 "HgN/A
12:00 AM75 °FPassing clouds.No wind94%29.89 "HgN/A
11:30 PM
Fri, Oct 21
75 °FClear.No wind94%29.89 "Hg10 mi
11:00 PM77 °FClear.No wind89%29.89 "Hg10 mi
10:30 PM77 °FPassing clouds.No wind89%29.89 "HgN/A
10:00 PM77 °FClear.No wind89%29.89 "Hg10 mi
9:30 PM79 °FClear.2 mph84%29.89 "Hg10 mi
9:00 PM79 °FPassing clouds.3 mph84%29.89 "HgN/A
8:00 PM79 °FPartly cloudy.No wind84%29.89 "HgN/A
7:30 PM81 °FClear.No wind79%29.86 "Hg10 mi
7:00 PM81 °FClear.2 mph79%29.86 "Hg10 mi
6:30 PM82 °FClear.2 mph74%29.86 "Hg10 mi
6:00 PM82 °FClear.3 mph74%29.86 "Hg10 mi
5:30 PM82 °FSunny.9 mph74%29.83 "Hg10 mi
5:00 PM84 °FPassing clouds.8 mph70%29.83 "HgN/A
4:30 PM86 °FPartly sunny.8 mph62%29.83 "HgN/A
4:00 PM86 °FPartly sunny.9 mph66%29.83 "HgN/A
3:30 PM86 °FCloudy.10 mph62%29.83 "HgN/A
3:00 PM86 °FPartly sunny.10 mph66%29.83 "HgN/A
2:30 PM84 °FBroken clouds.12 mph70%29.83 "Hg6 mi
2:00 PM90 °FPartly sunny.9 mph55%29.83 "HgN/A
1:30 PM90 °FPartly sunny.12 mph52%29.86 "HgN/A
1:00 PM90 °FScattered clouds.8 mph52%29.86 "HgN/A
12:30 PM88 °FPassing clouds.8 mph62%29.86 "HgN/A
12:00 PM86 °FPassing clouds.10 mph66%29.86 "HgN/A
Weather by CustomWeather, © 2016

See weather overviewHow to use our weather pages